Volver al catálogo

GALAXY 5

ActivoComunicacionesGEO
NORAD 21906·PAYLOAD·🇺🇸 United States

Lanzado Mar 14, 1992 desde Cape Canaveral Space Force Station

Loading…

TLE

ActualizadoSource: Space-Track

Época: Sep 14, 2026, 05:02 UTC

1 21906U 92013A   26257.21025067 -.00000272  00000-0  00000-0 0  9990
2 21906  13.5712  17.6643 0013237 102.8405 265.7632  0.99290504 47136

Sigue GALAXY 5 en tiempo real con AllMySat

Download on the App Store